[[{"header":{"parameterUnit":"m.s-1","parameterCategory":1,"la1":30.2991,"la2":30.254,"lo1":-89.0895,"lo2":-89.0444,"dy":0.0017,"dx":0.0017,"nx":28,"ny":28,"refTime":"2024-10-03T21:00:00:Z","depth":0,"parameterNumber":2,"parameterNumberName":"U-component_of_WINDS"},"data":[0,0,0,0,0,0,0,0,0,0,0,0,0,0,0,0,0,0,0,0,0,0,0,0,0,0,0,0,0,0,0,0,0,0,0,0,0,0,0,0,0,0,0,0,0,0,0,0,0,0,0,0,0,0,0,0,0,0,-2.1373,-2.1371,0,-2.1234,-2.1232,-2.1231,-2.1124,-2.1123,-2.1122,-2.1121,-2.0977,-2.0974,-2.0971,0,0,0,0,0,0,0,0,0,0,0,0,0,-2.1543,-2.1541,-2.1373,-2.1371,-2.1369,-2.1234,-2.1232,-2.123,-2.1124,-2.1123,-2.1122,-2.1121,-2.0978,-2.0974,-2.0971,0,0,0,0,0,0,0,0,0,0,0,0,0,-2.1443,-2.154,-2.1373,-2.13,-2.1292,-2.1235,-2.1232,-2.123,-2.1125,-2.1123,-2.1122,-2.112,-2.0979,-2.0974,-2.097,-2.0973,0,0,-2.0957,-2.0955,0,0,0,0,0,0,0,0,-2.1449,-2.1437,-2.1313,-2.1305,-2.1296,-2.1195,-2.1239,-2.1144,-2.1125,-2.1188,-2.1121,-2.112,-2.105,-2.104,-2.1017,-2.0966,-2.096,-2.0956,-2.0954,-2.0952,-2.095,0,0,0,0,0,0,0,-2.1456,-2.1443,-2.1318,-2.1311,-2.1301,-2.1274,-2.1258,-2.1221,-2.1129,-2.1183,-2.1175,-2.116,-2.1045,-2.1022,-2.1013,-2.0958,-2.0956,-2.0952,-2.095,-2.0948,-2.0901,-2.0903,0,0,0,0,0,0,-2.1475,-2.1449,-2.1322,-2.1314,-2.1371,-2.1272,-2.1254,-2.1229,-2.1129,-2.1113,-2.1161,-2.1155,-2.103,-2.1018,-2.1007,-2.1004,-2.0952,-2.0948,-2.0945,-2.09,-2.0902,-2.0903,0,0,0,0,0,0,-2.1479,-2.1465,-2.1328,-2.1379,-2.136,-2.127,-2.1243,-2.1227,-2.1203,-2.1113,-2.1096,-2.1154,-2.1028,-2.1014,-2.0982,-2.0997,-2.0946,-2.0942,-2.0898,-2.0901,-2.0903,-2.0997,0,0,0,0,0,0,-2.1484,-2.1467,-2.1467,-2.138,-2.1357,-2.1306,-2.1244,-2.1225,-2.1196,-2.1187,-2.1102,-2.1086,-2.1026,-2.0989,-2.0978,-2.099,-2.0938,-2.0897,-2.0899,-2.0902,-2.0992,-2.1002,-2.101,0,0,0,0,0,-2.1491,-2.1499,-2.1468,-2.1453,-2.1356,-2.1307,-2.1294,-2.1225,-2.1198,-2.1197,-2.1139,-2.1089,-2.0998,-2.0987,-2.0973,-2.0984,-2.0895,-2.0899,-2.0902,-2.0988,-2.1,-2.101,0,0,0,0,0,0,-2.1589,-2.1486,-2.1451,-2.1431,-2.1379,-2.1289,-2.1286,-2.124,-2.1194,-2.1188,-2.1104,-2.1085,-2.1063,-2.102,-2.101,-2.0982,-2.094,-2.0941,-2.101,-2.1021,-2.103,-2.104,-2.0935,0,0,0,0,0,-2.1609,-2.1578,-2.1489,-2.148,-2.1456,-2.1376,-2.1352,-2.1304,-2.1246,-2.1223,-2.1163,-2.1108,-2.1067,-2.1042,-2.0999,-2.0985,-2.0965,-2.0986,-2.0996,-2.1004,-2.1005,-2.0994,-2.1003,-2.0914,-2.0914,-2.0914,0,0,-2.1648,-2.1588,-2.1574,-2.1499,-2.1452,-2.1422,-2.1358,-2.1328,-2.1305,-2.1218,-2.1185,-2.114,-2.1073,-2.1051,-2.1038,-2.1014,-2.1025,-2.1008,-2.1015,-2.1011,-2.0999,-2.1007,-2.1015,-2.0916,-2.0915,-2.0915,0,0,-2.1705,-2.1657,-2.1644,-2.16,-2.1531,-2.1478,-2.1475,-2.1393,-2.1359,-2.1325,-2.126,-2.123,-2.1161,-2.1116,-2.1084,-2.1125,-2.1077,-2.1114,-2.1161,-2.1152,-2.1159,-2.1165,-2.1179,-2.1186,-2.1115,-2.1115,-2.1116,0,-2.1762,-2.1715,-2.1643,-2.1617,-2.1586,-2.1508,-2.1494,-2.1454,-2.1374,-2.1354,-2.133,-2.1242,-2.1191,-2.1157,-2.1168,-2.1145,-2.1138,-2.1122,-2.1164,-2.1169,-2.1174,-2.1186,-2.1192,-2.112,-2.112,-2.1119,-2.1119,0,-2.1789,-2.1757,-2.1754,-2.1681,-2.165,-2.163,-2.1555,-2.1531,-2.1486,-2.1436,-2.1402,-2.1339,-2.1282,-2.127,-2.1225,-2.123,-2.1218,-2.118,-2.1136,-2.1188,-2.1199,-2.1203,-2.1127,-2.1126,-2.1124,-2.1123,0,0,-2.1902,-2.1791,-2.1791,-2.1757,-2.1676,-2.1649,-2.1626,-2.1572,-2.1553,-2.1501,-2.1479,-2.1423,-2.1388,-2.1352,-2.1301,-2.1294,-2.133,-2.1256,-2.1253,-2.1272,-2.1331,-2.136,-2.1367,-2.1298,-2.1298,-2.1299,-2.1337,0,-2.1946,-2.1901,-2.1836,-2.1812,-2.1781,-2.1707,-2.1686,-2.1635,-2.1587,-2.1553,-2.15,-2.1462,-2.1418,-2.1396,-2.1385,-2.1328,-2.1341,-2.1324,-2.1276,-2.1275,-2.1294,-2.1372,-2.1402,-2.1441,-2.134,-2.1341,-2.1341,0,-2.199,-2.1944,-2.1918,-2.1839,-2.1824,-2.1807,-2.1752,-2.1721,-2.166,-2.1626,-2.1587,-2.1533,-2.1504,-2.1466,-2.1424,-2.1415,-2.1391,-2.136,-2.136,-2.1352,-2.1311,-2.1366,-2.1451,-2.1457,-2.1347,-2.1347,-2.1346,0,-2.2075,-2.2006,-2.1981,-2.1955,-2.1863,-2.1853,-2.1814,-2.1752,-2.1724,-2.1675,-2.1656,-2.1605,-2.1577,-2.1538,-2.1472,-2.145,-2.1438,-2.1394,-2.1408,-2.141,-2.1408,-2.1409,-2.149,-2.1394,-2.1394,-2.1394,-2.1394,0,-2.213,-2.2117,-2.2018,-2.2003,-2.1986,-2.1911,-2.1896,-2.185,-2.1796,-2.177,-2.1703,-2.1679,-2.1593,-2.156,-2.1507,-2.1481,-2.1469,-2.144,-2.1426,-2.1446,-2.145,-2.1429,-2.1424,-2.1395,-2.1395,-2.1395,-2.1395,0,-2.2222,-2.2156,-2.2124,-2.204,-2.2019,-2.201,-2.1938,-2.192,-2.1869,-2.1837,-2.1825,-2.1745,-2.1702,-2.1632,-2.1569,-2.1534,-2.1517,-2.1494,-2.1538,-2.1529,-2.1548,-2.1547,-2.1618,-2.1623,-2.1525,-2.1526,-2.1527,0,-2.2261,-2.2249,-2.2165,-2.2143,-2.2107,-2.2073,-2.2044,-2.197,-2.1943,-2.1873,-2.1864,-2.1816,-2.1774,-2.1709,-2.1645,-2.1596,-2.1571,-2.16,-2.1563,-2.1584,-2.1571,-2.1572,-2.1571,-2.1608,-2.1609,-2.161,-2.1611,0,-2.2337,-2.2305,-2.2267,-2.2217,-2.2184,-2.2141,-2.2094,-2.208,-2.1996,-2.1968,-2.1925,-2.1892,-2.1828,-2.1782,-2.1724,-2.1683,-2.1633,-2.1624,-2.1624,-2.1644,-2.1669,-2.1655,-2.156,-2.1622,-2.1621,-2.162,-2.1619,-2.1619,-2.2403,-2.2389,-2.2328,-2.2287,-2.2245,-2.2203,-2.2182,-2.2129,-2.2092,-2.2034,-2.1993,-2.1952,-2.1892,-2.181,-2.1772,-2.1738,-2.1716,-2.1717,-2.1717,-2.1718,-2.1726,-2.1676,-2.1727,-2.1727,-2.1727,-2.1726,-2.1726,0,-2.2475,-2.2433,-2.2396,-2.2334,-2.2302,-2.2259,-2.2205,-2.2181,-2.2146,-2.2094,-2.2055,-2.2005,-2.1959,-2.1892,-2.1842,-2.1828,-2.1804,-2.1817,-2.1817,-2.1808,-2.1749,-2.1753,-2.1837,-2.1837,-2.1837,-2.1837,-2.1837,-2.1837,-2.2509,-2.2483,-2.2445,-2.2397,-2.2354,-2.2314,-2.2287,-2.2248,-2.2207,-2.2154,-2.2117,-2.2073,-2.2015,-2.196,-2.1917,-2.1898,-2.1882,-2.1903,-2.1877,-2.1823,-2.1812,-2.1803,-2.1806,-2.19,-2.19,-2.1939,-2.194,-2.194]},{"header":{"parameterUnit":"m.s-1","parameterCategory":1,"la1":30.2991,"la2":30.254,"lo1":-89.0895,"lo2":-89.0444,"dy":0.0017,"dx":0.0017,"nx":28,"ny":28,"refTime":"2024-10-03T21:00:00:Z","depth":0,"parameterNumber":3,"parameterNumberName":"V-component_of_WINDS"},"data":[0,0,0,0,0,0,0,0,0,0,0,0,0,0,0,0,0,0,0,0,0,0,0,0,0,0,0,0,0,0,0,0,0,0,0,0,0,0,0,0,0,0,0,0,0,0,0,0,0,0,0,0,0,0,0,0,0,0,-2.2035,-2.2037,0,-2.2213,-2.2215,-2.2217,-2.226,-2.2259,-2.2258,-2.2257,-2.2439,-2.2444,-2.245,0,0,0,0,0,0,0,0,0,0,0,0,0,-2.1733,-2.1738,-2.2035,-2.2037,-2.2039,-2.2212,-2.2215,-2.2217,-2.226,-2.2259,-2.2258,-2.2256,-2.2437,-2.2444,-2.2451,0,0,0,0,0,0,0,0,0,0,0,0,0,-2.1883,-2.174,-2.2034,-2.2082,-2.2088,-2.2212,-2.2215,-2.2218,-2.2261,-2.2259,-2.2257,-2.2256,-2.2434,-2.2443,-2.2452,-2.2542,0,0,-2.2479,-2.2483,0,0,0,0,0,0,0,0,-2.1874,-2.1894,-2.2072,-2.2078,-2.2085,-2.2212,-2.2175,-2.2326,-2.2261,-2.2195,-2.2257,-2.2255,-2.2365,-2.2379,-2.2417,-2.255,-2.2558,-2.248,-2.2485,-2.2489,-2.2491,0,0,0,0,0,0,0,-2.1864,-2.1886,-2.2105,-2.2075,-2.2083,-2.2094,-2.2113,-2.2204,-2.2287,-2.2201,-2.2204,-2.2225,-2.2368,-2.2408,-2.2421,-2.2561,-2.248,-2.2487,-2.2493,-2.2496,-2.2779,-2.2781,0,0,0,0,0,0,-2.1845,-2.1877,-2.2099,-2.211,-2.1973,-2.2101,-2.2123,-2.2173,-2.2287,-2.2302,-2.2226,-2.2226,-2.2393,-2.2411,-2.2428,-2.2543,-2.2489,-2.2497,-2.2502,-2.2777,-2.278,-2.2782,0,0,0,0,0,0,-2.1838,-2.1864,-2.2092,-2.1995,-2.2025,-2.2108,-2.2165,-2.2178,-2.2218,-2.2306,-2.2321,-2.2251,-2.2393,-2.2415,-2.2514,-2.2549,-2.2501,-2.2509,-2.2774,-2.2778,-2.2781,-2.2771,0,0,0,0,0,0,-2.183,-2.1862,-2.1897,-2.1995,-2.203,-2.2175,-2.2167,-2.2183,-2.2233,-2.2235,-2.2334,-2.2348,-2.2393,-2.25,-2.2522,-2.2561,-2.2516,-2.2772,-2.2776,-2.278,-2.2769,-2.2774,-2.2778,0,0,0,0,0,-2.1819,-2.1886,-2.1898,-2.1925,-2.2075,-2.2177,-2.2197,-2.2247,-2.2236,-2.2272,-2.2329,-2.2345,-2.2541,-2.251,-2.2535,-2.2577,-2.277,-2.2775,-2.2779,-2.2767,-2.2773,-2.2778,0,0,0,0,0,0,-2.1789,-2.19,-2.1914,-2.2016,-2.2087,-2.2184,-2.2231,-2.2251,-2.2327,-2.2325,-2.2384,-2.2406,-2.2501,-2.2549,-2.2512,-2.2671,-2.2655,-2.2665,-2.2637,-2.2643,-2.2648,-2.2636,-2.2524,0,0,0,0,0,-2.1794,-2.1868,-2.1961,-2.2041,-2.2076,-2.2147,-2.2193,-2.2226,-2.2302,-2.2332,-2.2396,-2.2469,-2.2547,-2.2597,-2.2674,-2.2775,-2.2798,-2.2816,-2.2821,-2.2824,-2.2833,-2.2892,-2.2902,-2.2798,-2.2798,-2.2798,0,0,-2.1806,-2.1876,-2.1919,-2.2037,-2.2096,-2.2171,-2.2172,-2.2251,-2.2308,-2.2344,-2.2442,-2.2491,-2.2576,-2.2677,-2.2724,-2.2719,-2.2867,-2.283,-2.2832,-2.284,-2.2898,-2.2908,-2.2917,-2.2801,-2.2801,-2.28,0,0,-2.1867,-2.1926,-2.2001,-2.206,-2.2149,-2.2196,-2.2214,-2.2309,-2.2343,-2.2442,-2.2471,-2.2539,-2.2672,-2.2732,-2.278,-2.2864,-2.2883,-2.2887,-2.2913,-2.297,-2.2978,-2.2986,-2.3018,-2.3029,-2.2895,-2.2895,-2.2895,0,-2.1871,-2.1986,-2.2037,-2.2116,-2.2168,-2.2203,-2.2281,-2.2335,-2.2444,-2.248,-2.2472,-2.2641,-2.27,-2.2817,-2.2838,-2.2874,-2.2898,-2.2878,-2.2972,-2.2981,-2.2989,-2.302,-2.3032,-2.2895,-2.2895,-2.2895,-2.2895,0,-2.1987,-2.2066,-2.2116,-2.2222,-2.2279,-2.2356,-2.242,-2.2471,-2.2499,-2.2547,-2.2648,-2.2721,-2.2814,-2.2843,-2.287,-2.2964,-2.2959,-2.2961,-2.2947,-2.2998,-2.3029,-2.3041,-2.2896,-2.2896,-2.2896,-2.2895,0,0,-2.2036,-2.2169,-2.2187,-2.2236,-2.2337,-2.2399,-2.2478,-2.257,-2.2614,-2.2688,-2.2757,-2.2869,-2.2872,-2.2927,-2.2961,-2.301,-2.3076,-2.3007,-2.301,-2.302,-2.3187,-2.3186,-2.32,-2.3088,-2.309,-2.3092,-2.318,0,-2.2111,-2.2255,-2.2303,-2.2422,-2.2497,-2.2532,-2.2601,-2.2671,-2.2718,-2.2788,-2.284,-2.2919,-2.2916,-2.295,-2.3,-2.3057,-2.3111,-2.3051,-2.3155,-2.3158,-2.3135,-2.3215,-2.3215,-2.3295,-2.3193,-2.3195,-2.3196,0,-2.2219,-2.2296,-2.2422,-2.2515,-2.2549,-2.261,-2.2699,-2.2765,-2.2845,-2.2876,-2.2937,-2.2967,-2.3052,-2.3031,-2.315,-2.3109,-2.3154,-2.3188,-2.3192,-2.3206,-2.3182,-2.3234,-2.3321,-2.3334,-2.3215,-2.3214,-2.3212,0,-2.2245,-2.238,-2.2474,-2.2514,-2.2624,-2.2667,-2.2715,-2.2793,-2.2846,-2.2923,-2.2958,-2.3043,-2.309,-2.3156,-2.321,-2.3189,-2.3324,-2.3307,-2.3354,-2.3353,-2.3383,-2.3381,-2.3482,-2.3407,-2.3407,-2.3406,-2.3406,0,-2.2326,-2.2403,-2.2487,-2.2545,-2.2633,-2.2688,-2.2773,-2.2822,-2.2892,-2.2961,-2.2995,-2.3059,-2.3124,-2.3197,-2.3238,-2.3332,-2.3352,-2.3381,-2.3392,-2.338,-2.3376,-2.3412,-2.3409,-2.341,-2.3409,-2.3408,-2.3408,0,-2.2372,-2.2431,-2.2536,-2.2632,-2.2658,-2.2718,-2.2801,-2.2859,-2.2906,-2.2993,-2.3017,-2.3092,-2.318,-2.3239,-2.335,-2.3378,-2.3481,-2.3489,-2.3454,-2.346,-2.3504,-2.35,-2.3634,-2.3655,-2.3563,-2.3564,-2.3564,0,-2.2421,-2.2481,-2.2584,-2.2632,-2.2681,-2.2758,-2.2812,-2.2868,-2.2923,-2.302,-2.3066,-2.3156,-2.3231,-2.3369,-2.3434,-2.352,-2.3532,-2.3573,-2.3546,-2.3532,-2.3537,-2.3534,-2.3541,-2.3578,-2.3579,-2.358,-2.358,0,-2.2503,-2.253,-2.2606,-2.2693,-2.2757,-2.2828,-2.29,-2.2937,-2.3006,-2.3066,-2.3156,-2.3214,-2.3329,-2.3418,-2.351,-2.356,-2.3583,-2.3588,-2.3604,-2.3594,-2.3572,-2.3588,-2.3469,-2.3585,-2.3585,-2.3584,-2.3584,-2.3584,-2.2554,-2.261,-2.2692,-2.2776,-2.2836,-2.2902,-2.2962,-2.3018,-2.3094,-2.3192,-2.322,-2.3314,-2.3394,-2.352,-2.3571,-2.3646,-2.3643,-2.3665,-2.3671,-2.3676,-2.3678,-2.3558,-2.3663,-2.3663,-2.3663,-2.3663,-2.3663,0,-2.2641,-2.2695,-2.2772,-2.2872,-2.2938,-2.2952,-2.3032,-2.3088,-2.317,-2.3243,-2.3316,-2.342,-2.3507,-2.3579,-2.3669,-2.3715,-2.3728,-2.3738,-2.3736,-2.3748,-2.3675,-2.3654,-2.3726,-2.3726,-2.3726,-2.3726,-2.3726,-2.3726,-2.2694,-2.279,-2.2826,-2.2953,-2.3007,-2.31,-2.3145,-2.3206,-2.3265,-2.338,-2.3453,-2.3498,-2.3571,-2.3667,-2.3748,-2.3767,-2.3799,-2.3807,-2.3829,-2.376,-2.3753,-2.3746,-2.3726,-2.3813,-2.3813,-2.3896,-2.3897,-2.3897]}]]